Powrót do katalogu

SJ-30B

AktywnyNaukaVLEO
NORAD 66546·PAYLOAD·🇨🇳 China

Wystrzelony Nov 19, 2025 z Jiuquan Satellite Launch Center

Loading…

Następne Przeloty (najbliższe 24 godziny)

TLE

ŚwieżeSource: Space-Track

Epoka: Sep 14, 2026, 15:44 UTC

1 66546U 25266B   26257.65581899  .00005206  00000-0  28718-3 0  9993
2 66546  51.7956 120.2242 0006486 183.0023 177.0915 15.15521160 45428

Śledź SJ-30B w czasie rzeczywistym z AllMySat

Download on the App Store